+ View the NASA Portal
+ Center for Near-Earth Object Studies
IMPORTANT:
The SSD Announcement email list is now available. Major changes are coming in the near future, including possible hostname and/or URL changes. To be notified of such changes, subscribe to this email list.
Please visit
this page
for more details.
Don't show this message again
JPL Small-Body Database Browser
Search:
[
help
]
379098 (2008 YV5)
Classification:
Main-belt Asteroid
SPK-ID:
2379098
[
Ephemeris
|
Orbit Diagram
|
Orbital Elements
|
Mission Design
|
Physical Parameters
|
Discovery Circumstances
|
Close-Approach Data
]
[ show orbit diagram ]
Orbital Elements at Epoch 2458600.5 (2019-Apr-27.0) TDB
Reference:
JPL 9
(heliocentric ecliptic J2000)
Element
Value
Uncertainty (1-sigma)
Units
e
.3271188529267327
8.2811e-08
a
3.166474316423314
3.9658e-08
au
q
2.13066087021296
2.6597e-07
au
i
24.83137617398725
1.3217e-05
deg
node
80.84415397002269
3.2525e-05
deg
peri
34.40352077842608
4.7062e-05
deg
M
299.6377700560615
2.5632e-05
deg
t
p
2458945.584264364290
(2020-Apr-06.08426436)
0.00014862
TDB
period
2058.080612438003
5.63
3.8664e-05
1.059e-07
d
yr
n
.1749202620268328
3.2862e-09
deg/d
Q
4.202287762633668
5.2631e-08
au
Orbit Determination Parameters
# obs. used (total)
122
data-arc span
6245 days (17.10 yr)
first obs. used
2002-10-31
last obs. used
2019-12-06
planetary ephem.
DE431
SB-pert. ephem.
SB431-N16
condition code
0
norm. resid. RMS
.56589
source
ORB
producer
Otto Matic
solution date
2019-Dec-14 21:12:59
Additional Information
Earth MOID
= 1.18243 au
Jupiter MOID
= 1.25187 au
T_jup
= 2.981
[ show covariance matrix ]
[
Ephemeris
|
Orbit Diagram
|
Orbital Elements
|
Mission Design
|
Physical Parameters
|
Discovery Circumstances
|
Close-Approach Data
]
Physical Parameter Table
Parameter
Symbol
Value
Units
Sigma
Reference
Notes
absolute magnitude
H
16.0
n/a
MPO339186
diameter
diameter
4.121
km
1.074
urn:nasa:pds:neowise_diameters_albedos::2.0[mainbelt] (http://adsabs.harvard.edu/abs/2011ApJ...741...68M)
geometric albedo
albedo
0.050
0.020
urn:nasa:pds:neowise_diameters_albedos::2.0[mainbelt] (http://adsabs.harvard.edu/abs/2011ApJ...741...68M)
379098 (2008 YV5)
Discovered 2008-Dec-21 by Crni Vrh at Crni Vrh
Reference:
Last Updated:
2013-11-20
[ show close-approach data ]
[
Ephemeris
|
Orbit Diagram
|
Orbital Elements
|
Mission Design
|
Physical Parameters
|
Discovery Circumstances
|
Close-Approach Data
]
2019-Dec-16 08:33 UT
(server date/time)
Site Manager:
Ryan S. Park
Webmaster
:
Alan B. Chamberlin